Starlink 5998

operational
NORAD ID: 56468 Int'l Des: 2023-064 Owner: SPXS Country: US Constellation: starlink
LEOCIRCULAR

关于 Starlink 5998

正在加载描述...

实时位置

正在加载3D地球...

即将过境

高度历史

Altitude vs Time

uPlot chart will show altitude changes over time

两行轨道根数

1 56468U 23064W 25303.52818435 -.00000271 00000-0 -14880-4 0 9990
2 56468 69.9993 112.4580 0003004 265.8473 94.2342 14.98332211135758
Epoch: Oct 30, 2025 • Age: 20 hours

当前状态

高度 575.4 km
速度 7.57 km/s
星下点 -8.09°S, 122.26°E
发射日期 May 10, 2023
运行时间 2.4 years
类型 internet

技术详情

分类 Payload
质量 305.00 kg
干质量 290.00 kg
总质量 305.00 kg
长度 0.20 m
直径 2.80 m
跨度 9.00 m
形状 Box + pan
制造商 SPXS
平台类型 Starlink
阶段状态 In Orbit
所有者/国家 SPXS/US

大型星座

Loading constellations...